Location: Lesignano de� Bagni
(44.6500°N, 10.3000°E)
Time: 20:15:59
(UTC+00:00)

Cosmos 1500 - Pass Details

Date: 03 March 2021
Orbit: 499 x 517 km, 82.5° (Epoch: 17 April)

Event Time Altitude Azimuth Distance (km) Brightness Sun altitude
Rises 18:46:40 0° 201° (SSW) 2,579 6.9 -18.1°
Reaches altitude 10° 18:48:50 10° 207° (SSW) 1,700 6.0 -18.4°
Maximum altitude 18:52:25 47° 282° (WNW) 675 4.2 -19.1°
Drops below altitude 10° 18:56:03 10° 357° (N) 1,714 6.0 -19.7°
Sets 18:58:14 0° 3° (N) 2,604 6.9 -20.1°
